Previsão horária em Allstedt

Hoje, 16 Junho, Quarta-feira

Tempo Temperatura Precipitação Vento Pressão Humidade
00:00 +16°C° 0 mm 1 m/s 750 mmHg 91%
01:00 +15°C° 0 mm 1 m/s 750 mmHg 91%
02:00 +15°C° 0 mm 1 m/s 750 mmHg 91%
03:00 +15°C° 0 mm 1 m/s 750 mmHg 91%
04:00 +15°C° 0 mm 1 m/s 750 mmHg 91%
05:00 +16°C° 0 mm 1 m/s 750 mmHg 90%
06:00 +18°C° 0 mm 1 m/s 750 mmHg 89%
07:00 +19°C° 0 mm 1 m/s 749 mmHg 88%
08:00 +19°C° 0 mm 2 m/s 749 mmHg 85%
09:00 +21°C° 0 mm 2 m/s 749 mmHg 81%
10:00 +22°C° 0 mm 3 m/s 749 mmHg 78%
11:00 +24°C° 0 mm 3 m/s 749 mmHg 74%
12:00 +25°C° 0 mm 3 m/s 749 mmHg 71%
13:00 +26°C° 0 mm 2 m/s 748 mmHg 68%
14:00 +26°C° 0 mm 3 m/s 748 mmHg 67%
15:00 +27°C° 0 mm 3 m/s 748 mmHg 65%
16:00 +27°C° 0 mm 3 m/s 748 mmHg 64%
17:00 +26°C° 0.2 mm 2 m/s 748 mmHg 69%
18:00 +26°C° 0.2 mm 2 m/s 748 mmHg 75%
19:00 +25°C° 0.2 mm 2 m/s 747 mmHg 80%
20:00 +24°C° 0 mm 2 m/s 747 mmHg 83%
21:00 +21°C° 0 mm 2 m/s 747 mmHg 85%
22:00 +20°C° 0 mm 2 m/s 747 mmHg 88%
23:00 +20°C° 0 mm 2 m/s 747 mmHg 89%

Amanhã, 17 Junho, Quinta-feira

Tempo Temperatura Precipitação Vento Pressão Humidade
00:00 +20°C° 0 mm 1 m/s 747 mmHg 89%
01:00 +20°C° 0 mm 1 m/s 747 mmHg 90%
02:00 +20°C° 0 mm 1 m/s 747 mmHg 89%
03:00 +19°C° 0 mm 1 m/s 747 mmHg 89%
04:00 +19°C° 0 mm 1 m/s 747 mmHg 88%
05:00 +21°C° 0 mm 1 m/s 747 mmHg 85%
06:00 +22°C° 0 mm 1 m/s 747 mmHg 81%
07:00 +23°C° 0 mm 2 m/s 747 mmHg 78%
08:00 +25°C° 0 mm 2 m/s 747 mmHg 72%
09:00 +26°C° 0 mm 2 m/s 747 mmHg 67%
10:00 +28°C° 0 mm 2 m/s 747 mmHg 61%
11:00 +29°C° 0 mm 3 m/s 747 mmHg 58%
12:00 +30°C° 0 mm 3 m/s 747 mmHg 54%
13:00 +31°C° 0 mm 3 m/s 747 mmHg 50%
14:00 +31°C° 0 mm 3 m/s 747 mmHg 52%
15:00 +31°C° 0 mm 3 m/s 747 mmHg 54%
16:00 +31°C° 0 mm 3 m/s 746 mmHg 55%
17:00 +30°C° 0 mm 3 m/s 746 mmHg 61%
18:00 +28°C° 0 mm 3 m/s 746 mmHg 67%
19:00 +27°C° 0 mm 3 m/s 746 mmHg 73%
20:00 +26°C° 0 mm 2 m/s 746 mmHg 75%
21:00 +24°C° 0 mm 2 m/s 746 mmHg 78%
22:00 +23°C° 0 mm 2 m/s 747 mmHg 80%
23:00 +22°C° 0 mm 1 m/s 747 mmHg 80%

Depois de amanhã, 18 Junho, Sexta-feira

Tempo Temperatura Precipitação Vento Pressão Humidade
00:00 +22°C° 0 mm 1 m/s 746 mmHg 80%
01:00 +21°C° 0 mm 1 m/s 746 mmHg 81%
02:00 +21°C° 0 mm 1 m/s 746 mmHg 81%
03:00 +20°C° 0 mm 1 m/s 746 mmHg 82%
04:00 +20°C° 0 mm 1 m/s 746 mmHg 82%
05:00 +21°C° 0 mm 1 m/s 746 mmHg 79%
06:00 +21°C° 0 mm 0 m/s 747 mmHg 75%
07:00 +23°C° 0 mm 0 m/s 747 mmHg 72%
08:00 +26°C° 0 mm 1 m/s 747 mmHg 68%
09:00 +27°C° 0 mm 1 m/s 747 mmHg 64%
10:00 +29°C° 0 mm 1 m/s 747 mmHg 61%
11:00 +30°C° 0 mm 1 m/s 747 mmHg 58%
12:00 +30°C° 0 mm 2 m/s 747 mmHg 55%
13:00 +31°C° 0 mm 2 m/s 747 mmHg 52%
14:00 +32°C° 0 mm 2 m/s 746 mmHg 51%
15:00 +32°C° 0 mm 2 m/s 746 mmHg 50%
16:00 +32°C° 0 mm 1 m/s 746 mmHg 49%
17:00 +31°C° 0 mm 1 m/s 746 mmHg 55%
18:00 +30°C° 0 mm 1 m/s 746 mmHg 62%
19:00 +29°C° 0 mm 1 m/s 746 mmHg 69%
20:00 +27°C° 0 mm 1 m/s 746 mmHg 72%
21:00 +26°C° 0 mm 1 m/s 746 mmHg 74%
22:00 +24°C° 0 mm 2 m/s 746 mmHg 77%
23:00 +24°C° 0 mm 2 m/s 746 mmHg 78%

19 Junho, Sábado

Tempo Temperatura Precipitação Vento Pressão Humidade
00:00 +23°C° 0 mm 2 m/s 746 mmHg 80%
01:00 +23°C° 0 mm 1 m/s 747 mmHg 81%
02:00 +22°C° 0.1 mm 1 m/s 747 mmHg 84%
03:00 +21°C° 0.1 mm 1 m/s 747 mmHg 88%
04:00 +21°C° 0.1 mm 1 m/s 747 mmHg 92%
05:00 +22°C° 0 mm 1 m/s 748 mmHg 88%
06:00 +23°C° 0 mm 1 m/s 748 mmHg 85%
07:00 +24°C° 0 mm 2 m/s 749 mmHg 82%
08:00 +25°C° 0 mm 2 m/s 749 mmHg 77%
09:00 +26°C° 0 mm 3 m/s 749 mmHg 71%
10:00 +28°C° 0 mm 4 m/s 749 mmHg 66%
11:00 +28°C° 0 mm 4 m/s 749 mmHg 62%
12:00 +29°C° 0 mm 4 m/s 749 mmHg 59%
13:00 +30°C° 0 mm 3 m/s 749 mmHg 56%
14:00 +30°C° 0 mm 3 m/s 749 mmHg 55%
15:00 +30°C° 0 mm 3 m/s 749 mmHg 54%
16:00 +30°C° 0 mm 3 m/s 749 mmHg 54%
17:00 +29°C° 0 mm 2 m/s 749 mmHg 60%
18:00 +28°C° 0 mm 2 m/s 749 mmHg 66%
19:00 +27°C° 0 mm 2 m/s 749 mmHg 73%
20:00 +25°C° 0 mm 2 m/s 749 mmHg 79%
21:00 +21°C° 0 mm 2 m/s 749 mmHg 86%
22:00 +19°C° 0 mm 2 m/s 749 mmHg 92%
23:00 +19°C° 0 mm 2 m/s 749 mmHg 92%

20 Junho, Domingo

Tempo Temperatura Precipitação Vento Pressão Humidade
00:00 +19°C° 0 mm 2 m/s 749 mmHg 92%
01:00 +19°C° 0 mm 1 m/s 749 mmHg 91%
02:00 +19°C° 0 mm 1 m/s 748 mmHg 92%
03:00 +19°C° 0 mm 1 m/s 748 mmHg 92%
04:00 +19°C° 0 mm 1 m/s 747 mmHg 92%
05:00 +20°C° 0 mm 2 m/s 747 mmHg 89%
06:00 +21°C° 0 mm 2 m/s 747 mmHg 85%
07:00 +24°C° 0 mm 2 m/s 747 mmHg 82%
08:00 +26°C° 0 mm 3 m/s 746 mmHg 76%
09:00 +28°C° 0 mm 3 m/s 746 mmHg 71%
10:00 +30°C° 0 mm 4 m/s 746 mmHg 65%
11:00 +32°C° 0 mm 4 m/s 746 mmHg 60%
12:00 +33°C° 0 mm 4 m/s 745 mmHg 56%
13:00 +34°C° 0 mm 3 m/s 745 mmHg 51%
14:00 +35°C° 0 mm 3 m/s 745 mmHg 51%
15:00 +35°C° 0 mm 3 m/s 745 mmHg 52%
16:00 +35°C° 0 mm 3 m/s 745 mmHg 53%
17:00 +33°C° 0 mm 3 m/s 744 mmHg 59%
18:00 +31°C° 0 mm 2 m/s 744 mmHg 65%
19:00 +30°C° 0 mm 2 m/s 744 mmHg 71%
20:00 +28°C° 0 mm 2 m/s 744 mmHg 75%
21:00 +26°C° 0 mm 2 m/s 744 mmHg 80%
22:00 +24°C° 0 mm 3 m/s 744 mmHg 84%
23:00 +22°C° 0.1 mm 3 m/s 744 mmHg 87%

21 Junho, Segunda-feira

Tempo Temperatura Precipitação Vento Pressão Humidade
00:00 +21°C° 0.1 mm 3 m/s 745 mmHg 90%
01:00 +20°C° 0.1 mm 3 m/s 745 mmHg 93%
02:00 +20°C° 0 mm 3 m/s 745 mmHg 93%
03:00 +19°C° 0 mm 2 m/s 744 mmHg 93%
04:00 +20°C° 0 mm 1 m/s 744 mmHg 93%
05:00 +21°C° 0 mm 1 m/s 744 mmHg 91%
06:00 +22°C° 0 mm 1 m/s 744 mmHg 88%
07:00 +23°C° 0 mm 1 m/s 744 mmHg 85%
08:00 +24°C° 0 mm 1 m/s 744 mmHg 81%
09:00 +26°C° 0 mm 1 m/s 744 mmHg 76%
10:00 +27°C° 0 mm 1 m/s 744 mmHg 71%
11:00 +28°C° 0 mm 1 m/s 744 mmHg 68%
12:00 +29°C° 0 mm 2 m/s 744 mmHg 66%
13:00 +30°C° 0 mm 2 m/s 744 mmHg 63%
14:00 +30°C° 0.2 mm 2 m/s 743 mmHg 65%
15:00 +30°C° 0.2 mm 2 m/s 743 mmHg 67%
16:00 +29°C° 0.2 mm 2 m/s 743 mmHg 68%
17:00 +28°C° 1.2 mm 3 m/s 742 mmHg 73%
18:00 +27°C° 1.2 mm 4 m/s 742 mmHg 78%
19:00 +26°C° 1.2 mm 4 m/s 742 mmHg 83%
20:00 +23°C° 1.6 mm 4 m/s 742 mmHg 86%
21:00 +22°C° 1.6 mm 5 m/s 742 mmHg 88%
22:00 +20°C° 1.6 mm 5 m/s 742 mmHg 91%
23:00 +20°C° 1.2 mm 5 m/s 743 mmHg 91%
Mostrar mais